Regional Weather Roundup
Issued by NWS

Home | Current Version | Previous Version | Text Only | Print | Product List | Glossary On
Versions: 1 2 3 4 5 6 7 8 9 10 11 12 13 14 15 16 17 18 19 20 21 22 23 24 25 26 27 28 29 30 31 32 33 34 35 36 37 38 39 40 41 42 43 44 45 46 47 48 49 50
000
ASUS44 KFWD 060115
RWRTX
NORTH TEXAS HOURLY WEATHER ROUNDUP
NATIONAL WEATHER SERVICE FORT WORTH TX
800 PM CDT TUE MAY 05 2015

NOTE: "FAIR" INDICATES FEW OR NO CLOUDS BELOW 12,000 FEET WITH NO
SIGNIFICANT WEATHER AND/OR OBSTRUCTIONS TO VISIBILITY.

TXZ118-119-060200-
DALLAS/FORT WORTH METROPLEX

CITY           SKY/WX    TMP DP  RH WIND       PRES   REMARKS
DFW AIRPORT    LGT RAIN  72  67  84 SE16G30   29.89R
DALLAS LOVE    CLOUDY    76  66  71 SE22G32   29.90S
FTW MEACHAM    CLOUDY    73  69  87 SE14G24   29.87R
DAL-EXECUTIVE  CLOUDY    74  66  76 SE20G28   29.90R
FTW-ALLIANCE   LGT RAIN  72  69  90 SE14G29   29.88R
FTW-NAS-JRB    CLOUDY    75  67  76 SE20G30   29.88R
ARLINGTON      CLOUDY    74  66  76 SE18      29.89R
GRAND PRAIRIE  PTCLDY    73  68  83 SE10G22   29.91S
ADDISON        MOCLDY    75  64  69 SE20G30   29.90F
MESQUITE       MOCLDY    73  66  78 SE14G20   29.92S
LANCASTER      CLOUDY    73  65  77 SE12      29.92R
$$

TXZ091>094-102>105-117-120-121-131>134-060200-
NORTH CENTRAL TEXAS

CITY           SKY/WX    TMP DP  RH WIND       PRES   REMARKS
SHRMAN/DENISON MOCLDY    74  68  80 SE18G25   29.93R
GAINESVILLE    CLOUDY    69  66  91 SE10      29.92R
BOWIE          CLOUDY    67  66  97 E3        29.87S
BRIDGEPORT     CLOUDY    69  68  94 SE5       29.88S
DECATUR        CLOUDY    71  68  90 SE10      29.88S
DENTON         CLOUDY    72  67  84 SE13      29.88S
MCKINNEY       MOCLDY    73  66  78 SE15      29.91S
GREENVILLE     PTCLDY    72  63  73 SE13      29.96R
ROCKWALL       CLOUDY    73  66  79 SE15      29.92R
TERRELL        LGT RAIN  76  66  71 SE10      29.94R
WAXAHACHIE     CLOUDY    73  67  81 SE10G20   29.92R
CLEBURNE       PTCLDY    73  70  88 SE17      29.89F
GRANBURY         N/A     78  63  60 SE7       29.87S
$$

TXZ083>090-098>101-113>116-127>130-139>142-154-155-060200-
WESTERN NORTH TEXAS

CITY           SKY/WX    TMP DP  RH WIND       PRES   REMARKS
WICHITA FALLS  LGT RAIN  66  65  96 E8        29.83F FOG
WF-KICKAPOO    TSTM      69  66  92 NE3       29.86R
VERNON         CLOUDY    67  62  83 SE12      29.83F
ABILENE        MOCLDY    72  62  71 S20G28    29.85S
ABILENE-DYESS  MOCLDY    71  64  79 S20G25    29.82F
BRECKENRIDGE   CLOUDY    75  61  61 S16G23    29.86R
GRAHAM         CLOUDY    73  65  77 S12G20    29.85R
MINERAL WELLS  LGT RAIN  71  65  81 S6        29.86R
STEPHENVILLE   CLOUDY    73  60  63 S10G16    29.91R
COMANCHE       RAIN      71  65  80 S10G16    29.90R
BROWNWOOD      CLOUDY    72  63  73 S14       29.89R
COLEMAN        CLOUDY    72  64  73 S12       29.89S
$$

TXZ143>147-156>162-174-175-060200-
CENTRAL TEXAS

CITY           SKY/WX    TMP DP  RH WIND       PRES   REMARKS
WACO           MOCLDY    77  66  68 SE17G29   29.90R
WACO-TSTC      MOCLDY    75  68  78 SE7       29.91R
WACO-MCGREGOR  CLOUDY    77  63  61 SE15      29.91R
HILLSBORO      PTCLDY    72  65  80 SE16      29.90S
CORSICANA      MOCLDY    74  66  76 SE17G26   29.95R
MEXIA          CLOUDY    68  66  92 SE15G23   29.93R
HEARNE         CLOUDY    73  71  93 SE7       29.93R
CAMERON        CLOUDY    78  67  68 S10       29.91R
TEMPLE         CLOUDY    79  59  50 SE16G26   29.89R
KILLEEN        CLOUDY    76  62  61 S20       29.89R
KILLEEN-SKYLRK CLOUDY    79  59  50 S16       29.90R
FORT HOOD      CLOUDY    78  61  55 SE15G23   29.89R
GATESVILLE     CLOUDY    79  61  53 S8        29.91R
HAMILTON       LGT RAIN  72  63  72 S14G20    29.91R
LAMPASAS       MOCLDY    75  64  70 S6        29.90R
$$

TXZ095>097-106>112-122>126-135>138-148>153-164>167-060200-
EAST TEXAS

CITY           SKY/WX    TMP DP  RH WIND       PRES   REMARKS
PARIS          MOCLDY    68  61  77 MISG      29.99R
SULPHUR SPRNGS PTCLDY    72  66  81 SE8       29.98R
MOUNT PLEASANT MOCLDY   N/A N/A N/A E6        30.00S
GILMER         PTCLDY    70  68  93 E5        29.98S
MINEOLA        MOCLDY    72  68  88 SE6       29.97R
TYLER          PTCLDY    71  67  87 SE8       29.96S
LONGVIEW       PTCLDY    76  64  66 E10       29.97S
MARSHALL       CLOUDY    78  67  69 SE3       30.02R
ATHENS         CLOUDY    70  68  94 SE6       29.95R
PALESTINE      MOCLDY    73  71  93 SE5       29.97R
JACKSONVILLE   MOCLDY    73  67  82 SE5       30.00R
HENDERSON      MOCLDY    73  65  76 SE3       29.99R
NACOGDOCHES    PTCLDY    75  59  57 SE8       29.98S
LUFKIN         PTCLDY    77  63  61 SE9       29.99S
$$

SUPPLEMENTAL OBSERVATIONS (CENTRAL)

CITY           SKY/WX    TMP DP  RH WIND       PRES   REMARKS
LAKE TEXOMA      N/A     73  64  73 SE12        N/A
CADDO GRASSLND   N/A     70  66  88 S6          N/A
PAT MAYSE LAKE   N/A     66  64  94 E9          N/A
GREENVILLE       N/A     72  64  78 SE6G16      N/A
CEDAR HILL       N/A     73  64  73 SE10G20     N/A
LAKE LIMESTONE   N/A     72  68  88 SE6         N/A
MCGREGOR         N/A     77  64  65 SE10        N/A
$$

SUPPLEMENTAL OBSERVATIONS (WEST)

CITY           SKY/WX    TMP DP  RH WIND       PRES   REMARKS
MILLERS CREEK    N/A     66  63  88 SE1         N/A
LBJ GRASSLAND    N/A     72  68  88 SE7         N/A
COMANCHE         N/A     70  63  78 S8G16       N/A
HAMBY            N/A     72  61  68 S20G26      N/A
IVIE RESERVOIR   N/A     73  63  68 SE13G21     N/A
COLORADO BEND    N/A    N/A N/A N/A SW10        N/A
$$

SUPPLEMENTAL OBSERVATIONS (EAST)

CITY           SKY/WX    TMP DP  RH WIND       PRES   REMARKS
CLARKSVILLE      N/A     66  64  94 SE6         N/A
TEXARKANA        N/A     75  61  60 SE1G10      N/A
LINDEN           N/A     75  61  60 SE2         N/A
GILMER           N/A     70  66  88 SE2         N/A
HENDERSON        N/A     73  63  68 SE2         N/A
LUFKIN           N/A     75  63  64 MISG        N/A
N SABINE NF      N/A     73  64  73 MISG        N/A
S SABINE NF      N/A     73  59  60 CALM        N/A
$$

SUPPLEMENTAL OBSERVATIONS ARE A COLLECTION OF AUTOMATED INSTRUMENTS
THAT ARE MAINTAINED BY A VARIETY OF FEDERAL AND STATE AGENCIES.
CERTAIN ELEMENTS...SUCH AS HUMIDITY VALUES AND SUSTAINED WIND
SPEEDS...MAY BE APPROXIMATED.



USA.gov is the U.S. government's official web portal to all federal, state and local government web resources and services.